Погода в Июльском

Россия / Удмуртская Республика     56°55′08″N   53°36′20″E
темп.,
°C
ветер,
м/с
пор.,
м/с
влажн.,
%
обл.,
%
осадки,
мм/ч
давл.,
гПа
погр.,
м
7 мая, пт
пт701:00+8ю2380100 0.0 101642
04:00+8ю3987100 0.0 1016193
07:00+12ююз4107464 0.0 1016301
10:00+17ююз695065 0.0 10161293
13:00+19ююз6940100 0.0 10162371
16:00+19ююз6941100 0.0 10152587
19:00+16ююз4953100 0.0 1015503
22:00+13ю3865100 0.1 1015201
8 мая, сб
сб801:00+11ю3873100 0.0 1015199
04:00+10зюз247398 0.0 101682
07:00+11ссз2375100 0.0 1018249
10:00+15ссв1164100 0.0 1018697
13:00+18ю244792 0.2 10171530
16:00+17з235093 0.4 1017785
19:00+16в11625 0.0 101715
22:00+12вюв22720 0.0 101732
9 мая, вс
вс901:00+11ююв227311 0.0 101716
04:00+10юв22775 0.0 101736
07:00+13ююв377087 0.0 1017257
10:00+19ююв584856 0.0 10161140
13:00+21ю683723 0.0 10162320
16:00+21ю5637100 0.0 10162612
19:00+18ююв375371 0.0 1016175
22:00+16ююв3558100 0.0 1017102
10 мая, пн
пн1001:00+15ююв3761100 0.0 1017141
04:00+13зюз2367100 0.0 101852
07:00+11ссз4783100 0.0 1021367
10:00+9ссз4891100 1.5 1023449
13:00+11ссз5672100 0.1 1025933
16:00+13с465665 0.1 10261339
19:00+12с36545 0.0 1027382
22:00+6сз25940 3.1 1028104
11 мая, вт
вт1101:00+6ссз22711 0.0 103011
04:00+5сз11725 0.0 103110
07:00+9сз125680 0.0 1032165
10:00+15з23385 0.0 10321280
13:00+18зсз343475 0.0 10311780
16:00+19зсз343853 0.0 10301595
19:00+16зсз2453100 0.0 1030102
22:00+12зсз3570100 0.0 103081